Regional Weather Roundup
Issued by NWS

Home | Current Version | Previous Version | Graphics & Text | Print | Product List | Glossary Off
Versions: 1 2 3 4 5 6 7 8 9 10 11 12 13 14 15 16 17 18 19 20 21 22 23 24 25 26 27 28 29 30 31 32 33 34 35 36 37 38 39 40 41 42 43 44 45 46 47 48 49 50

000
ASUS43 KFSD 272310
RWRSD

WEATHER ROUNDUP FOR SOUTH DAKOTA
NATIONAL WEATHER SERVICE SIOUX FALLS SD
600 PM CDT MON MAR 27 2017

NOTE: "FAIR" INDICATES FEW OR NO CLOUDS BELOW 12,000 FEET WITH NO
SIGNIFICANT WEATHER AND/OR OBSTRUCTIONS TO VISIBILITY.


SDZ001>005-009-010-012>017-280000-
NORTHWEST AND NORTH CENTRAL SOUTH DAKOTA

CITY           SKY/WX    TMP DP  RH WIND       PRES   REMARKS
BUFFALO          N/A     61  31  32 E12       29.78S
FAITH            N/A     57  38  48 MISG      29.86F
MOBRIDGE       PTSUNNY   61  34  36 S12       29.88R
$$

SDZ012>016-024>037-041>051-057-063-072>074-280000-
SOUTHWEST AND SOUTH CENTRAL SOUTH DAKOTA

CITY           SKY/WX    TMP DP  RH WIND       PRES   REMARKS
RAPID CTY ARPT PTSUNNY   60  35  39 VRB7      29.83S
PIERRE         MOSUNNY   59  31  34 E10       29.88S
CUSTER         MOSUNNY   49  33  54 E13       29.86R
ELLSWORTH AFB  MOSUNNY   59  35  40 CALM      29.83S
PHILIP         SUNNY     62  36  37 E14       29.83F
PINE RIDGE     CLOUDY    65  35  33 NE8       29.80S
SPEARFISH      FAIR      54  37  54 E14       29.84R
WINNER         FAIR      63  37  38 SE7       29.86F
$$

SDZ004>011-016>023-039-040-280000-
NORTHEAST SOUTH DAKOTA

CITY           SKY/WX    TMP DP  RH WIND       PRES   REMARKS
ABERDEEN       CLOUDY    59  33  37 E7        29.92S
WATERTOWN      CLOUDY    55  35  47 E8        29.93S
BROOKINGS      PTSUNNY   57  36  45 E9          N/A
SISSETON         N/A     57  39  51 SE3       29.94S
$$

SDZ017-020-022-023-036>040-048>070-280000-
SOUTHEAST SOUTH DAKOTA

CITY           SKY/WX    TMP DP  RH WIND       PRES   REMARKS
SIOUX FALLS    MOSUNNY   58  39  49 SE9       29.93R
HURON          CLOUDY    59  34  39 SE6       29.91S
CHAMBERLAIN    SUNNY     62  31  31 E7        29.88F
MITCHELL       MOSUNNY   61  35  37 SE7       29.92S
YANKTON        SUNNY     57  37  47 SE6       29.92S
$$

ABBREVIATIONS USED IN REMARKS
   TC - TEMPERATURE IN CELSIUS
  WCI - WIND CHILL INDEX
   HX - HEAT INDEX
  VSB - VISIBILITY





USA.gov is the U.S. government's official web portal to all federal, state and local government web resources and services.